[[{"header":{"parameterUnit":"m.s-1","parameterCategory":1,"la1":30.2991,"la2":30.254,"lo1":-89.0895,"lo2":-89.0444,"dy":0.0017,"dx":0.0017,"nx":28,"ny":28,"refTime":"2023-11-21T09:00:00:Z","depth":0,"parameterNumber":2,"parameterNumberName":"U-component_of_WINDS"},"data":[0,0,0,0,0,0,0,0,0,0,0,0,0,0,0,0,0,0,0,0,0,0,0,0,0,0,0,0,0,0,0,0,0,0,0,0,0,0,0,0,0,0,0,0,0,0,0,0,0,0,0,0,0,0,0,0,0,0,3.3642,3.3643,0,3.3695,3.3696,3.3696,3.3679,3.3678,3.3677,3.3676,3.3731,3.3733,3.3736,0,0,0,0,0,0,0,0,0,0,0,0,0,3.3528,3.353,3.3642,3.3643,3.3643,3.3695,3.3696,3.3697,3.368,3.3678,3.3677,3.3676,3.373,3.3733,3.3736,0,0,0,0,0,0,0,0,0,0,0,0,0,3.3579,3.3531,3.3642,3.3641,3.3641,3.3695,3.3696,3.3697,3.368,3.3678,3.3677,3.3675,3.3729,3.3732,3.3736,3.3794,0,0,3.3748,3.3749,0,0,0,0,0,0,0,0,3.3576,3.3583,3.364,3.3641,3.3642,3.3679,3.3676,3.3729,3.368,3.3665,3.3676,3.3674,3.3715,3.372,3.3733,3.3796,3.3798,3.3748,3.375,3.3752,3.3753,0,0,0,0,0,0,0,3.3572,3.3581,3.3663,3.3641,3.3642,3.3639,3.3644,3.3686,3.3699,3.3667,3.3665,3.3672,3.3715,3.373,3.3734,3.3799,3.3748,3.3751,3.3754,3.3755,3.3916,3.3918,0,0,0,0,0,0,3.3568,3.3578,3.3661,3.3665,3.3604,3.3642,3.3648,3.3669,3.3698,3.3701,3.3673,3.3671,3.3724,3.373,3.3736,3.3808,3.3752,3.3755,3.3758,3.3914,3.3916,3.3919,0,0,0,0,0,0,3.3566,3.3576,3.3659,3.3621,3.3631,3.3646,3.3669,3.3671,3.3686,3.3704,3.3706,3.3686,3.3723,3.3731,3.378,3.381,3.3757,3.3761,3.3912,3.3915,3.3918,3.395,0,0,0,0,0,0,3.3563,3.3575,3.3596,3.3622,3.3633,3.3702,3.3671,3.3673,3.3692,3.369,3.3716,3.3719,3.3722,3.3775,3.3784,3.3814,3.3763,3.3909,3.3913,3.3917,3.3947,3.3954,3.396,0,0,0,0,0,3.3559,3.3602,3.3597,3.3607,3.366,3.3703,3.371,3.3713,3.3694,3.3717,3.3729,3.3718,3.3805,3.378,3.379,3.3822,3.3907,3.3912,3.3916,3.3943,3.3952,3.396,0,0,0,0,0,0,3.3579,3.3605,3.36,3.3653,3.3676,3.37,3.3728,3.3722,3.375,3.3747,3.3749,3.3756,3.3807,3.3819,3.3791,3.3881,3.3853,3.386,3.3871,3.3879,3.3886,3.3882,3.3767,0,0,0,0,0,3.359,3.3622,3.3644,3.3689,3.3701,3.3713,3.3731,3.3732,3.3756,3.3765,3.3781,3.3805,3.3838,3.3859,3.389,3.3949,3.3956,3.3975,3.3982,3.3988,3.3994,3.4029,3.4039,3.3934,3.3933,3.3933,0,0,3.3612,3.3631,3.3651,3.3693,3.3711,3.3746,3.3721,3.3757,3.3784,3.3771,3.3819,3.3832,3.3859,3.3914,3.3939,3.3925,3.4025,3.3994,3.3998,3.4001,3.4035,3.4045,3.4053,3.3937,3.3936,3.3936,0,0,3.3671,3.3687,3.3728,3.3747,3.3775,3.3783,3.3793,3.3819,3.3827,3.3876,3.3868,3.39,3.3956,3.3976,3.3994,3.4065,3.4057,3.4075,3.4111,3.4145,3.4153,3.4161,3.4188,3.4198,3.4081,3.4081,3.4081,0,3.3695,3.3746,3.3749,3.3788,3.3808,3.38,3.3842,3.3861,3.3897,3.3912,3.3897,3.3969,3.3987,3.4048,3.4066,3.408,3.4093,3.4072,3.4152,3.4159,3.4166,3.4193,3.4203,3.4083,3.4083,3.4083,3.4082,0,3.3776,3.3812,3.3842,3.3879,3.3902,3.3942,3.3953,3.3977,3.3977,3.3987,3.4039,3.406,3.4096,3.4111,3.411,3.4173,3.4165,3.4151,3.4123,3.4178,3.4203,3.4213,3.4086,3.4085,3.4085,3.4084,0,0,3.3847,3.3888,3.3899,3.3917,3.3949,3.3977,3.4018,3.4055,3.4077,3.4103,3.4139,3.4188,3.4177,3.4197,3.4199,3.4229,3.4287,3.4212,3.4213,3.4227,3.4361,3.4372,3.4384,3.4283,3.4285,3.4286,3.436,0,3.3909,3.3982,3.3988,3.4053,3.4088,3.4082,3.4119,3.4143,3.4155,3.4187,3.42,3.4236,3.4217,3.423,3.4259,3.4274,3.4315,3.4269,3.4317,3.4319,3.4312,3.4396,3.4407,3.4476,3.4369,3.4371,3.4372,0,3.3991,3.4022,3.4092,3.4122,3.4137,3.4169,3.4205,3.4236,3.4264,3.4271,3.4296,3.4295,3.4339,3.4311,3.4373,3.4342,3.4363,3.4374,3.4377,3.4381,3.4349,3.4405,3.4497,3.4508,3.4387,3.4386,3.4385,0,3.4039,3.4097,3.4147,3.4163,3.4199,3.4222,3.4238,3.4265,3.4288,3.432,3.4336,3.4372,3.4392,3.4421,3.4431,3.4409,3.4494,3.4466,3.4502,3.4502,3.452,3.4519,3.4618,3.4532,3.4532,3.4532,3.4532,0,3.4108,3.4151,3.4169,3.42,3.4249,3.4257,3.4306,3.4321,3.4346,3.438,3.4377,3.441,3.4421,3.4456,3.4464,3.4516,3.4525,3.4533,3.4535,3.4534,3.4533,3.4547,3.4543,3.4535,3.4534,3.4533,3.4533,0,3.4169,3.4182,3.4237,3.4268,3.4277,3.4312,3.4339,3.4369,3.4382,3.4426,3.4437,3.4457,3.4498,3.4511,3.4561,3.4567,3.4629,3.4625,3.4619,3.4619,3.4656,3.4653,3.4769,3.4785,3.4687,3.4688,3.4689,0,3.4213,3.4246,3.4282,3.4305,3.4323,3.436,3.4384,3.4394,3.4419,3.4457,3.4484,3.4525,3.4559,3.4627,3.4646,3.4685,3.4684,3.4722,3.4689,3.4689,3.4686,3.4685,3.4689,3.4728,3.4729,3.473,3.473,0,3.429,3.4296,3.4331,3.4369,3.4398,3.4429,3.4458,3.4478,3.4492,3.4521,3.4564,3.4591,3.4644,3.4686,3.4726,3.4744,3.4741,3.4741,3.4751,3.4751,3.4747,3.4752,3.4637,3.4738,3.4737,3.4736,3.4736,3.4736,3.4345,3.4376,3.4406,3.4446,3.447,3.4498,3.453,3.4547,3.4583,3.4627,3.4631,3.4678,3.471,3.4764,3.4784,3.4823,3.4812,3.4827,3.4831,3.4835,3.4839,3.474,3.483,3.483,3.483,3.4829,3.4829,0,3.4424,3.4444,3.4481,3.4523,3.4555,3.4549,3.4583,3.461,3.4652,3.4682,3.4716,3.4767,3.4809,3.4833,3.4876,3.4902,3.4902,3.4913,3.4911,3.4916,3.4845,3.4832,3.4913,3.4913,3.4913,3.4913,3.4913,3.4913,3.4468,3.4521,3.4531,3.4597,3.4617,3.4664,3.4684,3.4711,3.4735,3.4792,3.4828,3.4843,3.4871,3.4916,3.4956,3.4962,3.4978,3.4991,3.4996,3.4929,3.4921,3.4913,3.4901,3.4994,3.4994,3.5064,3.5065,3.5065]},{"header":{"parameterUnit":"m.s-1","parameterCategory":1,"la1":30.2991,"la2":30.254,"lo1":-89.0895,"lo2":-89.0444,"dy":0.0017,"dx":0.0017,"nx":28,"ny":28,"refTime":"2023-11-21T09:00:00:Z","depth":0,"parameterNumber":3,"parameterNumberName":"V-component_of_WINDS"},"data":[0,0,0,0,0,0,0,0,0,0,0,0,0,0,0,0,0,0,0,0,0,0,0,0,0,0,0,0,0,0,0,0,0,0,0,0,0,0,0,0,0,0,0,0,0,0,0,0,0,0,0,0,0,0,0,0,0,0,-4.9171,-4.9171,0,-4.9142,-4.9141,-4.9141,-4.9103,-4.9103,-4.9102,-4.9102,-4.9068,-4.9068,-4.9068,0,0,0,0,0,0,0,0,0,0,0,0,0,-4.9194,-4.9194,-4.9171,-4.9171,-4.9171,-4.9142,-4.9141,-4.9141,-4.9103,-4.9103,-4.9102,-4.9101,-4.9069,-4.9068,-4.9068,0,0,0,0,0,0,0,0,0,0,0,0,0,-4.9176,-4.9194,-4.9171,-4.9149,-4.9146,-4.9142,-4.9141,-4.9141,-4.9104,-4.9103,-4.9102,-4.9101,-4.9069,-4.9068,-4.9068,-4.9083,0,0,-4.9066,-4.9066,0,0,0,0,0,0,0,0,-4.9177,-4.9175,-4.9152,-4.915,-4.9147,-4.9125,-4.9137,-4.9121,-4.9104,-4.912,-4.9102,-4.9101,-4.9088,-4.9086,-4.9082,-4.9081,-4.908,-4.9066,-4.9066,-4.9066,-4.9066,0,0,0,0,0,0,0,-4.9179,-4.9177,-4.916,-4.9152,-4.9149,-4.9139,-4.9136,-4.9134,-4.9109,-4.9118,-4.9115,-4.9113,-4.9086,-4.9083,-4.9081,-4.9079,-4.9066,-4.9066,-4.9065,-4.9065,-4.9091,-4.9091,0,0,0,0,0,0,-4.9184,-4.9178,-4.9161,-4.9159,-4.9161,-4.914,-4.9136,-4.9133,-4.9109,-4.9105,-4.9113,-4.9111,-4.9084,-4.9082,-4.908,-4.9096,-4.9066,-4.9065,-4.9065,-4.909,-4.9091,-4.9092,0,0,0,0,0,0,-4.9184,-4.9182,-4.9162,-4.9168,-4.9164,-4.914,-4.9138,-4.9133,-4.9129,-4.9105,-4.9101,-4.9114,-4.9083,-4.908,-4.9083,-4.9095,-4.9065,-4.9065,-4.9088,-4.909,-4.9091,-4.9129,0,0,0,0,0,0,-4.9185,-4.9183,-4.9188,-4.9168,-4.9164,-4.9166,-4.9139,-4.9133,-4.9129,-4.9126,-4.9105,-4.9101,-4.9082,-4.9084,-4.9082,-4.9093,-4.9064,-4.9087,-4.9089,-4.9091,-4.9127,-4.9132,-4.9136,0,0,0,0,0,-4.9186,-4.9199,-4.9189,-4.9187,-4.9171,-4.9166,-4.9164,-4.9143,-4.913,-4.9136,-4.912,-4.9101,-4.9094,-4.9084,-4.9082,-4.9093,-4.9086,-4.9089,-4.9091,-4.9125,-4.9131,-4.9136,0,0,0,0,0,0,-4.922,-4.9196,-4.9184,-4.9192,-4.9182,-4.916,-4.9166,-4.915,-4.9143,-4.914,-4.9114,-4.911,-4.9115,-4.9105,-4.9094,-4.9107,-4.9087,-4.9089,-4.9114,-4.912,-4.9124,-4.9126,-4.9064,0,0,0,0,0,-4.9229,-4.9229,-4.9207,-4.9216,-4.9212,-4.919,-4.9187,-4.9173,-4.9161,-4.9156,-4.9141,-4.9129,-4.9124,-4.9121,-4.9116,-4.9126,-4.9121,-4.9133,-4.9137,-4.9141,-4.9143,-4.9148,-4.9153,-4.9099,-4.9099,-4.9099,0,0,-4.9247,-4.9234,-4.9234,-4.9222,-4.9213,-4.9212,-4.9186,-4.9186,-4.9186,-4.9155,-4.9157,-4.9146,-4.9131,-4.9138,-4.914,-4.9129,-4.9157,-4.9144,-4.9147,-4.9146,-4.9151,-4.9156,-4.916,-4.91,-4.91,-4.91,0,0,-4.9278,-4.9268,-4.9275,-4.9266,-4.9253,-4.9239,-4.924,-4.9222,-4.9214,-4.9215,-4.9193,-4.9191,-4.9183,-4.9174,-4.9169,-4.9199,-4.9182,-4.9198,-4.9222,-4.9228,-4.9232,-4.9235,-4.9246,-4.9251,-4.92,-4.92,-4.92,0,-4.9301,-4.93,-4.928,-4.9282,-4.9278,-4.9252,-4.9258,-4.9251,-4.9236,-4.9233,-4.9222,-4.9212,-4.9201,-4.9205,-4.9213,-4.9209,-4.921,-4.92,-4.9233,-4.9236,-4.9239,-4.925,-4.9254,-4.9202,-4.9202,-4.9202,-4.9202,0,-4.933,-4.9329,-4.9336,-4.9324,-4.932,-4.9324,-4.9304,-4.9303,-4.929,-4.9277,-4.9279,-4.9265,-4.9256,-4.9256,-4.9242,-4.9259,-4.9253,-4.9238,-4.9217,-4.9247,-4.9256,-4.926,-4.9205,-4.9205,-4.9204,-4.9203,0,0,-4.938,-4.9358,-4.9361,-4.9355,-4.9339,-4.9338,-4.9342,-4.9335,-4.9334,-4.9325,-4.9327,-4.9323,-4.9309,-4.9303,-4.9288,-4.9293,-4.9319,-4.9277,-4.9276,-4.9285,-4.9337,-4.9348,-4.9353,-4.9307,-4.9308,-4.9309,-4.9338,0,-4.9408,-4.9413,-4.9396,-4.9405,-4.9405,-4.9382,-4.9385,-4.9375,-4.9364,-4.9362,-4.9349,-4.9346,-4.9328,-4.9324,-4.9329,-4.9315,-4.9328,-4.9312,-4.9308,-4.9309,-4.9312,-4.9357,-4.9369,-4.9397,-4.9341,-4.9342,-4.9342,0,-4.9441,-4.9436,-4.9445,-4.943,-4.9429,-4.9432,-4.9425,-4.9424,-4.9413,-4.9404,-4.9399,-4.9382,-4.9384,-4.9366,-4.9368,-4.9358,-4.9356,-4.9349,-4.9349,-4.9347,-4.9327,-4.9356,-4.9406,-4.941,-4.9348,-4.9347,-4.9347,0,-4.9477,-4.9472,-4.9477,-4.9473,-4.9456,-4.9459,-4.9451,-4.944,-4.9437,-4.9431,-4.9429,-4.9422,-4.9419,-4.9414,-4.9397,-4.9385,-4.9402,-4.9381,-4.9394,-4.9395,-4.9398,-4.9398,-4.9447,-4.9398,-4.9398,-4.9398,-4.9398,0,-4.951,-4.9517,-4.9493,-4.9496,-4.9504,-4.9484,-4.9491,-4.9482,-4.9472,-4.9473,-4.9453,-4.9454,-4.9431,-4.9429,-4.9415,-4.942,-4.9419,-4.9412,-4.9408,-4.9413,-4.9414,-4.941,-4.9408,-4.9399,-4.9398,-4.9398,-4.9398,0,-4.9551,-4.9535,-4.9539,-4.9523,-4.952,-4.9526,-4.9512,-4.9514,-4.9502,-4.9504,-4.9503,-4.9484,-4.9482,-4.9464,-4.9457,-4.9448,-4.9458,-4.945,-4.9462,-4.9459,-4.9473,-4.9472,-4.9521,-4.9527,-4.9475,-4.9475,-4.9476,0,-4.9572,-4.9577,-4.9562,-4.9562,-4.9556,-4.9555,-4.9553,-4.9534,-4.9532,-4.9522,-4.9525,-4.9522,-4.9517,-4.9515,-4.95,-4.9495,-4.9487,-4.9505,-4.9486,-4.9492,-4.9487,-4.9487,-4.9487,-4.9509,-4.9509,-4.951,-4.951,0,-4.9612,-4.9605,-4.9602,-4.9598,-4.9596,-4.9591,-4.9585,-4.9586,-4.9565,-4.9564,-4.9562,-4.9559,-4.9554,-4.955,-4.9543,-4.9535,-4.9519,-4.9517,-4.9519,-4.9524,-4.9531,-4.9527,-4.9472,-4.9515,-4.9515,-4.9514,-4.9514,-4.9514,-4.9643,-4.9647,-4.9637,-4.9636,-4.963,-4.9625,-4.9627,-4.9616,-4.9614,-4.9608,-4.9598,-4.9597,-4.9588,-4.9577,-4.9571,-4.957,-4.9561,-4.9565,-4.9566,-4.9567,-4.957,-4.9532,-4.9569,-4.9569,-4.9569,-4.9568,-4.9568,0,-4.9682,-4.9675,-4.9674,-4.9667,-4.9666,-4.9653,-4.9646,-4.9645,-4.9646,-4.9638,-4.9636,-4.9634,-4.9631,-4.9617,-4.9613,-4.9615,-4.9608,-4.9615,-4.9614,-4.9612,-4.9578,-4.9576,-4.9621,-4.9621,-4.9621,-4.9621,-4.9621,-4.9621,-4.9702,-4.9707,-4.9699,-4.9702,-4.9695,-4.9695,-4.9692,-4.9688,-4.9682,-4.9682,-4.968,-4.9671,-4.9661,-4.9657,-4.9654,-4.965,-4.9649,-4.9658,-4.9652,-4.962,-4.9615,-4.961,-4.9608,-4.9658,-4.9658,-4.9686,-4.9686,-4.9686]}]]